星链-2711 (STARLINK-2711 )

导读

STARLINK-2711是美国SpaceX星链星座的成员,于2021年5月26日发射入轨,承担全球卫星互联网服务任务。它属于星链低轨卫星组网批次,为偏远地区网络覆盖、高速互联网接入提供支持,是星链大规模星座部署中推进全球互联布局的重要单元。

Basic Information
目录编号:
48673
目录名称:
STARLINK-2711
国际标识:
2021-044AM
轨道中心:
EARTH
卫星名称:
星链-2711
卫星全名:
星链-2711 (STARLINK-2711 )
卫星状态:
在轨 (已飞行1928 天)
发射日期:
2021-05-26 UTC
国别 :
美国 (US)
星等 :
--
Orbit Information
数据来源 国际轨道数据
星历时间: 2026-09-04T16:23:50+0800
1天前
查看轨道信息
半长轴: 6848.871km
偏心率: 0.000136
轨道倾角: 53.160°
近地点辐角 90.552°
升交点赤经 3.992°
平近点角 269.564°
近地点: 469.802km
远地点: 471.666km
周期: 94.013分钟
每日圈数: 15.317022
Detailed Information
固有亮度:
5
最大亮度:
2.5
卫星平台:
Starlink V1.0
覆盖范围:
全球
运营商:
太空探索技术公司
运营商所在国:
美国
制造商(研发单位):
太空探索技术公司
制造商所在国:
美国
使用方式:
暂无
Satellite Introduction
星链(Starlink)计划是由太空探索技术公司(SpaceX)提出的一个巨型低轨卫星互联网星座项目,计划在2019年至2024年间在太空搭建由约1.2万颗卫星组成的“星链”网络,其中1584颗将部署在地球上空550千米处的近地轨道,并从2020年开始工作。该卫星仍在工作。
2D Orbit Map
3D Orbit Map
Orbit Altitude Analysis Chart
Orbit Inclination Analysis Chart
Orbit Comprehensive Analysis Chart
View Comprehensive Chart
Conjunction Data List
Event ID Objects TCA Miss Dist (km) Collision Risk Probability Collision Risk Index (CRI) Action
CDM_260906-180004-867306-934121
2026-09-06T
18:00:52+0000
2.414 km
极远距离
1.482623E-6 低风险 0.38
CDM_260906-145604-867306-753422
2026-09-06T
14:56:58+0000
2.925 km
极远距离
1.34108E-6 低风险 0.38
CDM_260905-163104-867305-146521
2026-09-05T
16:31:52+0000
2.899 km
极远距离
1.249711E-6 低风险 0.37
CDM_260907-094204-867306-878821
2026-09-07T
09:42:16+0000
2.933 km
极远距离
1.04836E-6 低风险 0.35